SAUDISAT 1A 1 26545U 00057A 12136.91150817 .00000923 00000-0 13417-3 0 1523 2 26545 64.5540 78.5189 0044119 312.5197 47.2184 14.81517785628710 UNISAT 1 26547U 00057C 12136.14161564 .00001565 00000-0 20225-3 0 1787 2 26547 64.5554 55.6190 0045762 319.9961 39.7750 14.83929977629123 SAUDISAT 1B 1 26549U 00057E 12136.89454105 .00000819 00000-0 12434-3 0 2412 2 26549 64.5519 101.1777 0045269 318.6087 41.1617 14.80321300628256 MOZHAYETS 1 27560U 02054B 12136.98374276 .00000489 00000-0 12075-3 0 4770 2 27560 97.9563 300.9739 0043450 134.4425 226.0332 14.55603475501465 SAUDISAT 1C 1 27607U 02058C 12136.77161197 .00000495 00000-0 95566-4 0 7619 2 27607 64.5591 33.5060 0084038 254.7908 104.3885 14.72356022505190 UNISAT 2 1 27608U 02058D 12136.87738111 .00000390 00000-0 76414-4 0 7713 2 27608 64.5588 343.6263 0066508 248.8359 110.5605 14.75205972506249 SAUDISAT 2 1 28371U 04025F 12137.20948736 .00000266 00000-0 74079-4 0 8371 2 28371 97.9268 144.4258 0026038 348.4623 11.5978 14.53217826417889 UNISAT 3 1 28373U 04025H 12136.74891420 .00000349 00000-0 11127-3 0 2345 2 28373 98.0971 111.5170 0071785 101.4720 259.4539 14.43810808415574 SSETI EXPRESS (XO-53) 1 28894U 05043E 12137.19994539 .00000277 00000-0 66731-4 0 3814 2 28894 97.9143 3.3909 0016378 254.4076 105.5317 14.60079356349080 SAUDISAT 3 1 31118U 07012B 12137.08325698 .00000193 00000-0 41491-4 0 4338 2 31118 97.8742 195.1761 0016812 90.4435 269.8708 14.68253968272278